Content
SEND FEEDBACK

Daily
Averages
Monthly
Summary
United States of America

PYGA BEACH, GUAM


Home > North America > United States > Guam
Elevation: 20 feet     Latitude: 13 17N     Longitude: 144 39E

WEATHER
 
SELECT A DAY
Number of Records: 350,199;   Date Range: 1/1/95 - 9/29/14
 
SHARE

PRINT THIS DATA

[ ← Previous Day ]
WEATHER ALMANAC - AUGUST 18, 2014
[ Next Day → ]
[ °C ]   °F
Weather ElementAverageHighLow
Temperature82 °F86 °F (12:08 pm)75.2 °F (11:43 am)
Dewpoint76.6 °F78.8 °F (8:53 am)71.6 °F (10:08 am)
Humidity84 %94 % (5:23 am)74 % (11:56 am)
Barometer29.88 in29.93 in (10:56 pm)29.82 in (2:58 am)
Wind Speed8.2 mph15 mph (11:36 am)
Weather ElementAverage
Visibility9.3 mi
Wind DirectionE (90.7 °)

Weather ElementTotal
Precipitation0.11 in
Cooling Degree Days15.6 (Base 65)
Growing Degree Days30.6 (Base 50)
Averaged from 56 records on August 18, 2014
WEATHER CONDITIONS BREAKOUT
WIND DIRECTION BREAKOUT
WEATHER BY HOUR - AUGUST 18, 2014
[ °C ]   °F
Local TimeTemperatureDewpointHumidityBarometerVisibilityWind DirectionWind SpeedGust SpeedPrecipitationEventsConditions
12:18 AM80.6 °F77.0 °F89 %29.90 in10.0 miNNE (30°)8.1 mphMostly Cloudy
12:23 AM80.6 °F77.0 °F89 %29.89 in10.0 miNNE (20°)9.2 mphScattered Clouds
12:58 AM80.2 °F74.3 °F82 %29.86 in10.0 miNNE (30°)10.4 mphClear
1:58 AM80.1 °F75.4 °F86 %29.84 in10.0 miNE (40°)6.9 mphPartly Cloudy
2:58 AM79.9 °F76.1 °F88 %29.83 in10.0 miNE (50°)5.8 mphClear
3:58 AM77.9 °F74.1 °F88 %29.83 in10.0 miNNE (30°)5.8 mphClear
4:58 AM75.9 °F72.3 °F89 %29.84 in10.0 miNE (50°)3.5 mphScattered Clouds
5:03 AM77.0 °F73.4 °F89 %29.87 in10.0 miNE (50°)3.5 mphMostly Cloudy
5:08 AM75.2 °F71.6 °F89 %29.87 in10.0 miENE (60°)3.5 mphScattered Clouds
5:43 AM80.6 °F77.0 °F89 %29.88 in10.0 miENE (60°)4.6 mphMostly Cloudy
5:53 AM80.6 °F77.0 °F89 %29.88 in10.0 miENE (60°)4.6 mphScattered Clouds
5:58 AM80.1 °F76.6 °F89 %29.86 in10.0 miNE (50°)4.6 mphScattered Clouds
6:06 AM80.6 °F77.0 °F89 %29.89 in3.0 miNNE (30°)5.8 mphRainLight Rain
6:11 AM80.6 °F77.0 °F89 %29.89 in1.5 miNNE (30°)2.3 mphRainLight Rain
6:16 AM80.6 °F77.0 °F89 %29.88 in2.0 miNNE (30°)4.6 mphRainLight Rain
6:19 AM80.6 °F77.0 °F89 %29.89 in8.0 miNNE (30°)5.8 mphMostly Cloudy
6:35 AM80.6 °F77.0 °F89 %29.89 in10.0 miENE (60°)5.8 mphLight Drizzle
6:51 AM80.6 °F77.0 °F89 %29.89 in9.0 miNE (50°)5.8 mphScattered Clouds
6:58 AM80.2 °F77.0 °F90 %29.86 in10.0 miENE (60°)4.6 mph0.06 inMostly Cloudy
7:03 AM80.6 °F77.0 °F89 %29.89 in10.0 miENE (70°)4.6 mphMostly Cloudy
7:13 AM80.6 °F77.0 °F89 %29.89 in10.0 miENE (60°)8.1 mphScattered Clouds
7:58 AM81.7 °F76.6 °F85 %29.87 in10.0 miENE (60°)8.1 mph0.01 inClear
8:58 AM82.2 °F76.3 °F82 %29.88 in10.0 miEast (90°)9.2 mphScattered Clouds
9:33 AM84.2 °F77.0 °F79 %29.90 in10.0 miEast (80°)8.1 mphMostly Cloudy
9:43 AM86.0 °F78.8 °F79 %29.91 in10.0 miENE (70°)8.1 mphScattered Clouds
9:53 AM86.0 °F78.8 °F79 %29.91 in10.0 miENE (60°)6.9 mphMostly Cloudy
9:58 AM85.1 °F78.4 °F80 %29.88 in10.0 miNE (50°)6.9 mphMostly Cloudy
10:03 AM84.2 °F77.0 °F79 %29.91 in10.0 miEast (80°)9.2 mphMostly Cloudy
10:23 AM86.0 °F77.0 °F74 %29.91 in10.0 miEast (100°)8.1 mphMostly Cloudy
10:43 AM84.2 °F78.8 °F84 %29.90 in10.0 miESE (110°)8.1 mphScattered Clouds
10:53 AM86.0 °F78.8 °F79 %29.90 in10.0 miEast (90°)10.4 mphMostly Cloudy
10:58 AM85.3 °F78.1 °F79 %29.87 in10.0 miEast (100°)10.4 mphMostly Cloudy
11:03 AM86.0 °F78.8 °F79 %29.90 in10.0 miESE (110°)9.2 mphScattered Clouds
11:58 AM84.4 °F77.2 °F79 %29.86 in10.0 miEast (100°)10.4 mphScattered Clouds
12:58 PM86.0 °F78.6 °F79 %29.84 in10.0 miSE (140°)10.4 mphMostly Cloudy
1:28 PM84.2 °F77.0 °F79 %29.86 in10.0 miSE (130°)12.7 mphMostly Cloudy
1:38 PM86.0 °F77.0 °F74 %29.86 in10.0 miSE (130°)13.8 mphScattered Clouds
1:48 PM86.0 °F77.0 °F74 %29.85 in10.0 miSE (130°)13.8 mphMostly Cloudy
1:53 PM86.0 °F77.0 °F74 %29.86 in10.0 miSE (130°)15.0 mphMostly Cloudy
1:58 PM86.0 °F77.0 °F74 %29.82 in10.0 miESE (120°)13.8 mphScattered Clouds
2:38 PM86.0 °F78.8 °F79 %29.85 in10.0 miSSE (150°)11.5 mphMostly Cloudy
2:48 PM84.2 °F77.0 °F79 %29.85 in10.0 miSSE (150°)12.7 mphScattered Clouds
2:58 PM84.7 °F77.5 °F79 %29.82 in10.0 miSE (130°)12.7 mphScattered Clouds
3:58 PM84.0 °F77.2 °F80 %29.82 in10.0 miSE (140°)10.4 mphPartly Cloudy
4:58 PM83.3 °F75.4 °F77 %29.82 in10.0 miSSE (150°)10.4 mphPartly Cloudy
5:58 PM83.1 °F75.2 °F77 %29.84 in10.0 miSE (140°)10.4 mphClear
6:58 PM81.5 °F76.3 °F84 %29.86 in10.0 miSE (140°)8.1 mphClear
7:58 PM81.0 °F76.1 °F85 %29.87 in10.0 miSSE (160°)6.9 mphClear
8:58 PM81.0 °F76.1 °F85 %29.87 in10.0 miSSE (150°)5.8 mphClear
9:58 PM81.3 °F76.5 °F85 %29.89 in10.0 miSE (140°)6.9 mphOvercast
10:56 PM80.6 °F77.0 °F89 %29.93 in10.0 miSE (130°)10.4 mphRainLight Rain
10:58 PM80.6 °F77.0 °F89 %29.91 in10.0 miSE (130°)12.7 mphRainLight Rain
11:08 PM78.8 °F75.2 °F89 %29.93 in3.0 miSSE (160°)9.2 mphRainRain
11:13 PM77.0 °F73.4 °F89 %29.93 in3.0 miSE (140°)5.8 mphRainLight Rain
11:18 PM77.0 °F75.2 °F94 %29.93 in10.0 miESE (120°)5.8 mphMostly Cloudy
11:58 PM79.2 °F77.2 °F94 %29.89 in10.0 miESE (120°)6.9 mph0.04 inPartly Cloudy
Hourly data recorded from PGUA, located miles away from Pyga Beach, Guam







STORIES FROM OUR PARTNERS